RH
92 87 84 94 94 99 88 87 91 97 88 76 78 88 93 89 77 65 62 71 78 74 67 65 53 36 35 30 27 26 25 24 25 24 26 28 27 25 22 21 21 19 17 12 10 6 16 24 46
80 96 98 97 94 96 96 93 86 98 92 82 79 86 94 79 72 62 50 37 44 40 46 49 40 31 28 30 29 30 25 23 22 20 19 17 19 19 22 20 19 19 19 15 10 6 7 18 37
88 97 99 80 86 97 98 85 77 77 79 74 71 80 77 71 65 50 34 30 31 31 28 27 26 26 25 26 23 23 23 22 22 20 17 15 22 24 21 22 27 31 29 22 19 13 10 29 39
92 96 96 70 69 68 98 91 77 63 73 66 63 82 78 66 66 66 48 30 30 28 26 21 16 19 16 18 25 21 22 20 18 16 14 18 26 26 27 31 47 42 39 30 28 22 28 37 42
81 94 72 57 19 69 74 81 36 86 91 60 65 90 80 72 66 60 38 30 27 28 27 21 17 12 13 22 24 25 24 30 33 24 14 18 24 36 38 46 68 68 51 40 32 27 26 30 39
67 78 93 99 64 44 75 70 66 46 46 51 59 64 70 68 68 42 36 28 21 18 24 25 16 18 20 26 29 35 35 34 40 35 21 22 37 30 41 52 60 60 55 58 61 52 35 28 37
80 84 74 99 100 54 60 31 64 81 34 48 53 59 65 70 59 27 29 23 15 15 15 16 18 27 29 30 33 36 32 35 35 37 35 34 34 35 40 43 39 33 28 27 27 37 53 54 53
99 78 61 67 65 67 61 52 18 17 63 47 48 40 52 60 43 30 32 29 13 14 14 15 16 26 31 26 24 26 26 27 39 37 30 33 32 27 22 14 6 4 7 8 7 12 18 24 42
98 81 83 70 64 61 68 49 26 5 31 19 48 35 35 39 35 33 32 26 14 10 12 13 15 18 21 19 21 20 21 23 29 35 19 18 35 28 20 16 3 6 16 6 7 6 6 7 18
100 73 87 96 85 62 49 48 20 3 5 5 30 22 37 29 25 29 32 26 12 10 24 16 15 13 11 15 19 16 9 10 17 41 50 51 43 37 49 46 35 19 17 12 8 5 6 6 7
53 67 81 97 82 63 30 59 66 6 6 7 3 6 24 36 39 40 38 24 12 9 32 6 18 16 7 12 16 6 5 4 4 15 60 70 51 58 53 39 41 29 19 17 7 7 6 7 7
62 66 73 96 99 98 69 53 76 17 3 3 4 3 5 11 30 27 29 14 11 9 14 14 24 13 10 17 15 12 13 6 12 16 43 60 40 36 40 31 29 20 22 22 12 10 9 9 9
61 73 95 98 98 95 93 78 24 58 3 2 3 2 2 6 10 7 8 12 8 12 11 17 8 10 18 25 28 11 12 13 32 32 27 21 40 40 35 21 13 8 19 16 17 10 8 6 7
69 58 75 86 95 98 97 98 38 79 3 3 3 3 4 7 8 8 9 9 11 11 6 20 17 9 19 22 24 22 18 9 8 13 24 17 9 30 42 27 28 32 25 21 12 9 7 6 5
53 53 48 69 76 97 89 59 60 74 16 7 3 6 3 6 12 10 9 10 12 4 10 21 19 12 13 12 10 9 7 6 10 4 10 19 8 16 25 35 32 28 41 20 10 11 6 6 6
54 53 45 54 89 77 98 70 63 31 72 68 18 3 3 6 7 8 6 12 4 3 14 14 7 14 11 4 5 8 9 6 11 6 18 17 14 22 35 31 33 28 13 14 19 14 8 6 6
53 45 39 47 91 97 83 87 70 45 45 34 42 5 2 8 8 6 8 6 4 4 12 11 7 12 11 12 7 1 10 19 18 24 23 17 34 31 34 30 29 28 27 25 19 20 15 7 7
40 50 49 48 75 92 78 80 81 74 72 45 46 34 2 3 8 6 4 2 4 2 5 4 4 1 2 11 33 26 27 40 34 20 15 17 28 24 17 13 15 15 11 13 16 19 14 10 9
47 57 52 62 88 85 81 89 97 87 74 83 55 27 4 2 1 2 1 1 2 2 2 1 1 1 0 2 14 21 31 13 17 7 1 4 12 11 7 8 13 12 10 12 16 14 15 13 11
17 42 56 56 78 86 96 87 93 86 94 64 39 44 7 2 3 2 1 1 1 2 3 3 4 4 4 3 6 10 0 8 3 2 4 10 6 8 11 16 15 12 10 11 13 16 19 21 20
10 13 50 44 81 81 81 95 95 90 91 66 60 51 6 2 2 3 2 1 1 2 3 4 4 3 3 4 4 4 14 16 12 10 6 6 7 8 13 15 14 10 9 11 13 19 24 26 27
3 12 52 76 77 82 90 97 92 94 90 77 63 43 12 3 3 6 5 3 3 2 2 2 2 2 2 2 3 4 20 34 26 11 11 10 12 12 13 13 8 8 18 43 47 50 55 55 49
2 24 40 76 81 87 85 92 68 99 62 63 70 72 88 18 4 18 20 22 29 30 25 16 9 3 2 1 1 2 6 10 6 22 14 13 16 15 12 9 8 22 49 39 28 38 52 48 51
2 20 39 68 82 85 69 71 63 63 70 65 79 54 80 57 27 38 36 27 36 32 32 37 32 22 21 19 7 1 2 5 16 19 15 20 23 12 11 9 20 35 62 44 29 30 32 36 63
2 4 25 32 69 38 66 69 33 69 70 72 81 58 72 87 73 51 52 41 26 32 38 44 42 38 31 35 35 15 1 2 8 9 11 12 12 11 9 26 36 46 43 33 30 43 54 55 47
2 2 2 14 24 29 52 45 17 43 68 80 78 82 74 64 76 76 62 52 50 40 43 46 47 47 47 42 33 28 27 4 1 1 4 9 11 12 20 31 43 39 27 38 42 53 51 58 66
3 3 3 3 8 32 14 43 13 37 71 78 73 85 67 66 61 67 82 62 55 47 56 53 52 60 49 42 37 27 16 25 22 18 8 9 11 18 19 34 34 33 35 39 58 66 68 64 64
4 6 6 4 4 6 6 18 5 14 50 61 62 63 62 62 62 56 67 74 53 38 60 57 54 50 38 26 18 13 11 11 29 35 19 21 10 20 32 35 34 31 32 49 60 68 74 70 70
4 4 4 8 9 6 4 2 3 7 51 60 65 65 68 60 64 66 69 70 73 45 43 60 62 49 35 28 19 15 11 10 23 36 31 11 19 16 30 40 33 41 39 44 54 58 76 72 79
6 6 6 4 4 4 4 2 6 8 47 64 64 68 70 64 80 80 73 73 59 36 37 60 52 54 45 28 26 17 8 6 16 34 16 21 15 14 24 24 32 37 52 48 50 53 67 66 65
Wind_Speed
11 8 6 7 6 12 10 7 5 4 4 10 10 10 11 12 13 13 13 15 14 16 17 17 15 13 12 11 10 9 9 7 9 9 8 9 10 10 8 8 10 8 7 7 6 6 6 9 10
12 9 10 12 12 9 11 11 4 6 7 8 12 10 14 13 12 15 14 16 16 18 18 16 13 11 11 11 10 9 8 8 8 7 7 8 8 7 7 8 9 8 8 8 6 5 6 7 7
15 7 10 22 14 18 9 6 8 9 12 9 11 7 12 14 13 19 17 16 16 16 14 13 12 11 10 10 8 8 8 7 5 5 5 7 7 9 10 9 8 8 8 7 7 6 7 7 7
7 21 18 31 21 13 12 15 13 11 13 10 10 13 8 7 13 17 14 15 16 14 12 11 11 12 10 9 8 8 7 5 5 5 5 7 10 11 11 10 10 10 9 7 7 7 6 5 6
12 11 16 13 23 14 12 19 13 15 11 8 6 11 7 6 10 17 16 14 13 13 11 11 11 11 11 9 9 7 6 7 5 5 7 9 10 9 11 11 12 11 9 9 8 7 6 4 5
7 12 17 14 7 12 12 15 13 8 4 5 7 11 6 10 13 16 17 13 10 11 11 11 11 12 11 10 10 9 9 9 10 9 10 10 9 11 13 13 12 11 9 9 8 9 9 8 7
7 5 13 15 9 8 17 14 15 13 12 3 5 10 8 9 13 16 14 11 9 8 11 12 12 13 12 12 12 12 12 13 13 13 12 11 12 15 15 13 12 11 11 11 13 11 10 9 8
6 11 6 9 7 12 18 15 13 9 5 6 2 6 13 8 10 13 10 6 5 8 10 13 13 13 12 13 14 14 14 13 13 13 12 13 13 15 15 13 15 15 17 17 17 16 15 12 11
6 7 4 8 8 13 16 18 11 6 4 7 3 5 7 13 11 11 8 3 2 7 11 14 13 13 13 13 14 14 14 14 13 15 18 16 18 18 18 18 17 17 16 17 18 18 17 15 16
16 12 11 12 12 12 12 18 12 11 12 5 5 3 9 11 11 11 7 2 3 8 13 14 14 14 14 14 14 14 15 15 17 16 15 17 19 17 17 16 17 17 15 15 17 16 16 16 14
16 11 9 12 14 16 12 13 17 15 13 10 7 3 10 14 11 7 7 5 6 11 14 14 14 13 15 15 14 17 17 15 16 17 15 14 16 14 11 15 12 14 13 13 13 13 14 13 13
15 15 15 10 9 18 21 18 14 12 7 7 7 3 7 11 15 12 10 8 9 13 14 13 14 13 16 14 14 16 15 15 15 15 16 13 12 16 11 13 13 13 13 13 13 14 13 11 10
18 16 17 5 3 10 15 23 18 9 12 9 9 5 4 10 11 9 8 10 11 15 14 13 13 14 15 13 12 13 13 13 14 13 13 15 13 11 11 10 11 12 12 11 12 13 12 11 12
19 20 16 10 3 10 11 18 23 16 14 11 9 8 4 6 12 11 11 11 15 14 15 14 11 13 15 13 10 9 9 11 11 12 10 11 9 9 8 10 10 10 10 11 11 10 12 14 14
29 23 16 14 14 10 12 18 18 10 11 13 11 9 6 5 9 10 12 15 14 16 13 13 10 11 11 11 8 8 8 7 9 8 7 6 7 9 9 8 7 8 8 10 12 12 12 13 13
27 26 17 14 11 8 15 19 18 13 6 17 14 11 7 4 8 10 13 13 15 14 15 13 11 12 11 10 9 9 9 8 6 7 4 5 5 6 6 7 9 9 12 13 14 13 14 14 13
30 27 23 19 17 17 19 20 17 12 13 13 12 15 7 2 5 11 15 13 15 14 13 12 13 12 10 10 8 7 5 6 4 4 3 3 4 5 7 8 9 11 12 14 15 16 16 14 14
25 20 19 20 21 17 17 13 19 13 14 11 7 14 9 3 6 11 12 14 14 13 12 11 8 8 8 7 6 4 4 4 4 1 3 4 5 7 8 9 11 15 16 14 14 14 15 15 14
23 21 17 21 24 21 17 17 20 18 9 10 10 8 9 2 7 8 10 11 13 12 9 7 6 5 4 5 4 3 5 5 3 2 1 4 5 7 8 12 15 16 14 13 14 15 15 13 14
22 23 22 26 22 19 18 21 23 19 11 9 5 6 8 5 3 5 9 11 12 10 8 7 5 4 4 3 3 3 5 5 5 3 2 2 4 7 10 12 13 14 15 14 16 17 18 18 16
26 24 24 27 22 22 21 29 31 20 16 10 3 6 8 6 5 4 5 8 8 9 9 8 7 5 4 4 5 4 4 4 4 3 2 2 4 7 9 10 13 15 17 17 17 20 21 19 18
27 20 27 30 27 28 27 30 29 26 16 16 3 1 7 10 9 3 3 4 4 5 5 6 8 9 8 6 6 6 5 6 6 5 4 5 7 7 8 11 12 14 14 14 16 17 19 20 20
20 29 29 33 29 32 29 32 20 25 20 11 5 7 10 9 11 6 2 2 1 4 6 7 7 6 8 9 10 8 10 9 8 9 9 10 9 12 11 11 10 10 9 9 11 13 16 19 19
22 34 35 38 37 46 37 33 24 29 17 10 11 12 10 9 10 2 4 6 3 5 8 9 11 11 10 9 12 13 13 11 11 11 12 12 12 15 11 7 6 7 6 13 14 15 16 23 21
28 38 40 44 51 50 40 40 25 26 22 14 16 10 12 17 15 11 10 10 11 9 10 12 15 16 16 13 12 14 16 14 15 14 13 14 16 12 7 3 3 4 5 8 10 13 16 20 21
32 36 44 48 49 45 44 48 30 22 19 14 10 12 16 18 26 18 17 15 11 10 10 14 16 17 18 17 14 14 17 18 17 14 14 16 16 6 1 3 3 6 7 8 12 15 18 20 23
30 42 35 43 44 51 42 50 35 28 24 20 14 20 20 18 13 10 15 17 12 6 8 11 17 17 15 16 16 16 16 18 18 16 17 18 12 4 3 4 6 7 9 9 9 16 20 22 22
38 31 39 42 45 49 46 50 39 32 27 21 18 22 21 22 21 15 15 14 14 5 6 11 17 16 14 11 12 14 19 20 17 18 19 18 9 5 7 9 9 10 8 8 13 22 23 26 25
39 41 41 42 41 40 35 34 38 32 31 24 26 22 19 25 19 18 17 17 21 19 10 10 16 16 15 11 11 11 15 16 16 20 20 16 9 8 8 9 9 11 14 14 16 20 25 30 31
47 44 42 44 40 38 34 26 14 35 36 29 27 25 17 20 22 23 19 20 24 14 14 12 17 17 17 16 13 10 12 15 19 22 20 16 11 7 7 7 7 8 11 15 17 21 16 27 31
Wind_Direction
142 141 158 150 87 138 124 124 79 115 85 63 71 120 103 90 87 84 74 99 113 112 112 117 120 112 106 108 114 117 119 119 94 88 90 83 74 71 71 77 79 75 74 78 89 117 113 103 107
137 88 168 138 92 123 118 114 129 83 90 69 68 105 117 100 97 95 99 106 121 122 118 113 114 109 104 108 117 120 120 102 88 79 71 65 64 78 92 83 79 78 81 86 95 109 113 108 102
145 314 150 87 87 86 113 111 80 72 87 85 80 76 93 102 103 103 110 118 123 114 112 114 115 105 102 110 115 124 104 98 87 62 60 76 87 91 88 87 80 74 71 79 86 84 96 102 109
297 53 75 74 74 43 89 123 76 80 77 69 87 110 95 115 123 119 130 132 116 111 113 113 106 107 106 115 120 107 101 92 69 66 79 98 90 84 82 90 83 76 71 78 85 82 80 90 89
27 359 43 68 75 52 55 65 58 55 71 70 77 110 115 131 140 138 137 126 121 117 118 118 112 109 112 113 107 106 100 79 73 84 97 94 90 89 89 84 67 67 69 64 67 71 76 70 62
42 65 97 106 92 50 53 52 69 39 78 88 99 103 117 160 152 142 134 128 121 122 127 125 116 110 110 109 107 100 88 87 87 89 92 92 82 86 85 75 63 57 51 58 57 52 49 50 55
82 88 111 112 132 37 28 30 47 4 17 48 132 116 128 167 158 147 134 125 119 126 127 121 116 112 111 110 104 99 93 87 88 88 90 87 78 71 68 76 76 68 59 58 63 64 57 48 38
139 65 91 87 53 18 33 36 25 15 21 32 329 132 136 161 167 154 140 109 122 136 125 121 118 118 118 115 110 102 97 96 95 97 94 81 75 77 78 69 70 72 68 63 63 61 62 54 48
224 246 160 63 17 34 25 32 23 37 27 25 154 128 155 159 169 162 159 141 155 143 128 124 123 123 120 117 112 108 105 107 105 93 86 90 87 87 85 81 78 77 70 70 68 64 68 67 65
217 248 90 59 25 359 15 25 11 30 34 30 197 194 177 179 168 175 184 230 185 149 131 128 120 116 118 119 114 109 110 109 107 100 102 89 93 90 88 84 82 79 75 68 69 66 64 67 66
210 191 88 80 42 13 11 10 10 20 28 339 310 220 203 189 178 185 228 244 170 148 140 132 118 119 125 126 122 116 107 107 108 105 102 89 89 73 103 74 88 73 67 62 67 66 55 46 38
189 148 79 10 21 3 356 348 346 31 41 6 348 294 227 208 190 195 217 209 164 150 137 128 120 129 131 132 129 119 112 113 103 97 92 81 98 76 81 74 72 73 66 56 50 50 48 39 31
210 140 101 70 117 335 331 337 318 37 36 21 17 344 245 203 192 175 177 173 158 148 138 130 126 137 138 138 133 124 120 114 109 99 85 78 75 68 67 68 70 68 68 54 44 35 28 19 22
211 162 137 150 180 271 305 299 340 321 21 29 21 7 320 217 172 155 161 171 157 149 140 134 134 139 143 143 132 128 124 122 116 107 91 81 75 71 71 64 49 52 47 52 44 27 6 6 5
221 221 177 171 197 194 246 300 331 310 24 28 12 8 346 223 164 158 160 163 155 149 148 140 146 137 139 133 138 149 120 99 104 112 95 79 63 69 47 46 48 45 25 28 23 17 4 3 3
222 214 185 173 195 201 263 292 319 360 331 9 355 354 6 209 167 158 153 158 152 151 155 149 149 152 145 122 109 109 122 119 132 134 88 66 47 49 51 32 16 8 4 357 353 352 350 352 358
226 227 247 196 178 211 258 271 320 3 11 10 1 337 7 155 177 157 150 163 155 154 161 164 159 151 143 142 136 126 120 133 126 109 111 73 58 42 26 21 8 351 346 339 332 336 333 337 341
232 235 249 200 170 207 251 277 311 335 356 14 336 327 323 119 178 167 157 161 169 172 173 163 152 150 154 147 145 162 152 129 123 65 19 42 36 16 17 2 359 343 342 337 339 325 322 326 321
213 221 224 186 175 210 240 267 284 320 345 10 19 348 288 246 160 172 167 161 167 172 177 163 150 153 169 167 176 158 138 149 166 193 71 40 19 9 357 345 340 336 329 329 320 314 315 312 311
212 197 206 201 188 211 228 267 281 292 285 297 282 316 269 167 210 199 174 177 171 176 179 187 199 196 181 183 190 174 166 166 161 174 108 29 13 351 341 342 331 319 313 317 315 314 311 312 308
209 205 183 212 194 219 212 240 258 276 267 295 356 304 245 170 161 227 223 198 198 195 199 193 208 232 243 215 219 209 191 199 206 188 192 302 328 333 329 315 305 309 319 325 319 316 312 308 306
218 200 184 191 207 220 195 227 250 249 250 272 254 207 232 195 164 164 262 264 258 265 264 240 220 227 244 250 249 236 228 227 235 249 260 285 300 310 291 291 306 319 338 336 321 312 316 312 305
210 201 193 200 213 220 217 230 236 222 240 266 240 208 279 259 191 136 194 189 240 304 297 291 284 269 266 258 256 240 233 233 234 251 263 274 284 292 285 301 330 331 350 347 354 4 16 357 321
210 204 203 205 211 224 217 228 231 219 235 234 237 251 237 252 251 164 218 244 266 286 289 287 275 268 262 261 270 260 246 236 235 246 259 268 276 284 288 322 331 323 313 319 356 13 24 23 18
221 210 208 214 213 225 221 225 231 222 220 224 243 256 272 263 267 267 241 246 260 274 284 272 270 268 261 252 252 263 258 250 245 248 252 257 270 280 287 312 343 316 294 328 7 11 14 18 18
240 227 223 217 223 231 224 228 229 219 221 221 226 280 269 295 258 292 247 219 239 258 294 278 278 276 269 259 256 256 261 252 250 249 242 251 269 249 295 267 249 276 300 344 2 353 357 3 3
237 236 234 227 230 233 238 234 237 223 207 213 228 244 268 279 275 322 256 216 224 225 313 273 274 281 277 264 254 261 261 253 247 247 247 257 257 193 276 264 264 288 307 328 352 351 352 349 347
226 234 232 230 225 232 239 239 245 230 209 227 243 243 268 275 283 300 312 275 268 283 265 273 272 273 270 272 267 258 253 250 243 238 245 258 213 209 224 247 274 288 297 337 355 1 358 354 347
226 226 231 235 233 232 243 245 237 228 215 212 238 241 257 269 278 287 297 289 268 269 274 271 259 268 267 262 271 265 258 245 225 227 237 227 209 206 195 235 266 285 303 307 332 342 356 357 350
230 227 234 237 244 251 252 250 232 215 208 211 225 237 243 260 267 269 270 270 263 272 261 275 257 262 260 258 270 264 262 238 215 222 215 201 213 188 209 236 267 290 292 314 316 333 343 347 345